Location: Boitzum
(52.1496°N, 9.6943°E)
Time: 23:44:03
(UTC+00:00)

Cosmos 2074 Rocket - Pass Details

Date: 13 January 2026
Orbit: 965 x 986 km, 82.9° (Epoch: 18 February)

Event Time Altitude Azimuth Distance (km) Brightness Sun altitude
Rises 04:52:54 0° 177° (S) 3,683 7.1 -22.4°
Reaches altitude 10° 04:55:25 10° 174° (S) 2,739 6.5 -22.0°
Maximum altitude 05:01:38 65° 94° (E) 1,078 4.4 -21.0°
Drops below altitude 10° 05:07:52 10° 15° (NNE) 2,754 6.4 -20.1°
Sets 05:10:25 0° 12° (NNE) 3,704 7.1 -19.7°
